Flag for Norway Weather past 2 weeks in Hamar, Norway

Now
45 °F

Cool.


Feels Like: 45 °F
Forecast: 43 / 69 °F
Wind: 1 mph from Southeast

Location: Haugedalshogda

Current Time: Aug 4, 2015 at 12:08:02 AM

Latest Report: Aug 3, 2015 at 10:00 PM


Visibility: N/A

Pressure: 30.16 "Hg

Humidity: 90%

Dew point: 42 °F

Location of HamarLocation

Historic Weather in Hamar — Graph

°F

Hamar temperature yesterday

Maximum temperature yesterday: 65 °F (at 6:00 PM)
Minimum temperature yesterday: 32 °F (at 5:00 AM)
Average temperature yesterday: 49 °F

Past Weeks' High & Low Weather Summary

 TemperatureHumidityPressure
High71 °F (Jul 22, 2:00 PM)96% (Jul 22, 3:00 AM)30.21 "Hg (Jul 22, 3:00 AM)
Low32 °F (Aug 3, 5:00 AM)38% (Jul 24, 4:00 PM)29.38 "Hg (Jul 26, 7:00 PM)
Average55 °F74%29.72 "Hg
* Reported Jul 19 10:00 PM — Aug 3 10:00 PM, Hamar, Weather by CustomWeather, © 2015

Note: Actual official high and low records may vary slightly from our data, if they occured in-between our weather recording intervals... More about our weather records

Advertising

Hamar weather history for previous 24 hours

 ConditionsComfort  
Time TempWeatherWind HumidityBarometerVisibility
10:00 PM
Mon, Aug 3
45 °FCool.1 mph90%30.16 "HgN/A
9:00 PM51 °FCool.1 mph86%30.14 "HgN/A
8:00 PM56 °FCool.1 mph71%30.13 "HgN/A
7:00 PM61 °FRefreshingly cool.3 mph55%30.13 "HgN/A
6:00 PM65 °FMild.2 mph44%30.13 "HgN/A
5:00 PM60 °FRefreshingly cool.2 mph56%30.15 "HgN/A
4:00 PM61 °FRefreshingly cool.2 mph51%30.16 "HgN/A
3:00 PM61 °FRefreshingly cool.2 mph52%30.16 "HgN/A
2:00 PM61 °FRefreshingly cool.2 mph56%30.16 "HgN/A
1:00 PM60 °FRefreshingly cool.2 mph52%30.16 "HgN/A
11:00 AM60 °FRefreshingly cool.1 mph52%30.18 "HgN/A
10:00 AM57 °FCool.1 mph62%30.18 "HgN/A
9:00 AM51 °FCool.1 mph76%30.19 "HgN/A
8:00 AM47 °FCool.No wind81%30.19 "HgN/A
7:00 AM40 °FQuite cool.1 mph93%30.21 "HgN/A
6:00 AM35 °FChilly.No wind96%30.21 "HgN/A
5:00 AM32 °FChilly.No wind96%30.21 "HgN/A
4:00 AM34 °FChilly.1 mph95%30.20 "HgN/A
3:00 AM34 °FChilly.1 mph96%30.18 "HgN/A
2:00 AM35 °FChilly.1 mph94%30.17 "HgN/A
1:00 AM35 °FChilly.No wind93%30.16 "HgN/A
12:00 AM38 °FChilly.1 mph92%30.14 "HgN/A
Weather by CustomWeather, © 2015

See weather overviewHow to use our weather pages